Clines Corner, NM

1:27 PM MDT on October 17, 2017 (GMT -0600)
Clines Corner

Weather History for KCQC - March, 2014

Change the Weather History Date:

Sunday, March 2, 2014

  Actual Average (KSAF) Record (KSAF)
Temperature  
Mean Temperature 39 °F -  
Max Temperature 48 °F 0 °F 71 °F (2009)
Min Temperature 30 °F - 6 °F (2002)
Degree Days  
Heating Degree Days 26    
Moisture  
Dew Point 32 °F    
Average Humidity 80    
Maximum Humidity 96    
Minimum Humidity 46    
Precipitation  
Precipitation 0.05 in - - ()
Sea Level Pressure  
Sea Level Pressure 29.93 in    
Wind  
Wind Speed 19 mph (WSW)    
Max Wind Speed 31 mph    
Max Gust Speed 44 mph    
Visibility 10 miles    
Events Rain    
Averages and records for this station are not official NWS values.
T = Trace of Precipitation, MM = Missing Value Source: NWS Daily Summary

Daily Weather History Graph

Daily Weather History Graph

Search for Another Location

Airport or City:

Trip Planner

Search our weather history database for the weather conditions in past years. The results will help you decide how hot, cold, wet, or windy it might be!

Date:

Astronomy

Mar. 02, 2014 Rise Set
Actual Time 6:30 AM MST 5:59 PM MST
Civil Twilight 6:05 AM MST 6:24 PM MST
Nautical Twilight 5:36 AM MST 6:54 PM MST
Astronomical Twilight 5:06 AM MST 7:23 PM MST
Moon 7:08 AM MST (3/2) 7:52 PM MST (3/2)
Length of Visible Light 12h 19m
Length of Day
11h 28m
Waxing Crescent, 3% of the Moon is Illuminated
Mar 2
Waxing Crescent
Mar 8
First Quarter
Mar 16
Full
Mar 23
Last Quarter
Mar 30
New

Hourly Weather History & Observations

Time (MST) Temp. Windchill Dew Point Humidity Pressure Visibility Wind Dir Wind Speed Gust Speed Precip Events Conditions
12:03 AM 35.1 °F 26.9 °F 33.1 °F 92% 29.95 in 10.0 mi West 11.5 mph - 0.00 in Rain Light Rain
12:53 AM 36.0 °F 27.1 °F 34.0 °F 93% 29.80 in 10.0 mi SW 13.8 mph - 0.00 in Rain Light Rain
1:53 AM 37.0 °F 26.2 °F 35.1 °F 93% 29.81 in 10.0 mi SW 21.9 mph - 0.01 in Rain Light Rain
2:04 AM 37.0 °F 26.2 °F 35.1 °F 93% 29.93 in 10.0 mi WSW 21.9 mph - 0.01 in Rain Light Rain
2:51 AM 35.6 °F 24.5 °F 33.8 °F 93% 29.91 in 10.0 mi SW 20.7 mph - 0.04 in Rain Light Rain
2:53 AM 36.0 °F 24.7 °F 34.0 °F 93% 29.82 in 10.0 mi SW 21.9 mph - 0.04 in Rain Light Rain
2:57 AM 36.0 °F 25.0 °F 34.0 °F 93% 29.90 in 10.0 mi SSW 20.7 mph 32.2 mph 0.00 in Rain Light Rain
3:53 AM 36.0 °F 24.7 °F 34.0 °F 93% 29.82 in 10.0 mi SW 21.9 mph - 0.00 in   Overcast
4:05 AM 35.1 °F 24.5 °F 33.1 °F 92% 29.89 in 10.0 mi SW 18.4 mph - N/A   Scattered Clouds
4:53 AM 35.1 °F 24.8 °F 34.0 °F 96% 29.87 in 10.0 mi SSW 17.3 mph - N/A   Partly Cloudy
5:05 AM 35.1 °F 25.2 °F 34.0 °F 96% 29.94 in 10.0 mi SW 16.1 mph - N/A   Mostly Cloudy
5:35 AM 36.0 °F 27.1 °F 34.0 °F 93% 29.92 in 10.0 mi SSW 13.8 mph - N/A   Mostly Cloudy
5:53 AM 36.0 °F 25.6 °F 34.0 °F 93% 29.87 in 10.0 mi SW 18.4 mph 24.2 mph N/A   Overcast
6:37 AM 36.0 °F 25.3 °F 33.1 °F 89% 29.93 in 10.0 mi SW 19.6 mph - N/A   Overcast
6:49 AM 35.6 °F 25.5 °F 33.8 °F 93% 29.93 in 10.0 mi SW 17.3 mph - N/A   Overcast
6:53 AM 36.0 °F 25.3 °F 34.0 °F 93% 29.88 in 10.0 mi SW 19.6 mph 25.3 mph N/A   Overcast
7:30 AM 36.0 °F 25.6 °F 33.1 °F 89% 29.92 in 10.0 mi SW 18.4 mph - N/A   Mostly Cloudy
7:53 AM 37.0 °F 25.9 °F 33.1 °F 86% 29.86 in 10.0 mi SW 23.0 mph 29.9 mph N/A   Clear
8:18 AM 37.9 °F 26.8 °F 34.0 °F 86% 29.92 in 10.0 mi WSW 24.2 mph - N/A   Partly Cloudy
8:53 AM 37.9 °F 26.8 °F 34.0 °F 86% 29.87 in 10.0 mi WSW 24.2 mph 31.1 mph N/A   Mostly Cloudy
9:27 AM 37.9 °F 28.2 °F 34.0 °F 86% 29.96 in 10.0 mi WSW 18.4 mph - 0.00 in Rain Light Rain
9:53 AM 39.0 °F 29.0 °F 33.1 °F 79% 29.88 in 10.0 mi West 20.7 mph 33.4 mph 0.00 in Rain Light Rain
10:26 AM 37.9 °F 26.6 °F 32.0 °F 79% 29.95 in 10.0 mi West 25.3 mph 36.8 mph 0.00 in   Overcast
10:53 AM 42.1 °F 31.5 °F 32.0 °F 67% 29.88 in 10.0 mi West 28.8 mph - 0.00 in   Mostly Cloudy
11:27 AM 39.9 °F 28.4 °F 32.0 °F 73% 29.95 in 10.0 mi West 29.9 mph - N/A   Mostly Cloudy
11:53 AM 41.0 °F 30.0 °F 32.0 °F 70% 29.90 in 10.0 mi West 28.8 mph 35.7 mph N/A   Mostly Cloudy
12:53 PM 41.0 °F 30.7 °F 32.0 °F 70% 29.89 in 10.0 mi WNW 25.3 mph 34.5 mph N/A   Overcast
1:40 PM 43.0 °F 33.1 °F 32.0 °F 65% 29.95 in 10.0 mi WNW 26.5 mph 35.7 mph N/A   Mostly Cloudy
1:53 PM 43.0 °F 33.1 °F 30.9 °F 62% 29.87 in 10.0 mi WNW 26.5 mph 35.7 mph N/A   Mostly Cloudy
2:53 PM 46.9 °F - 28.9 °F 50% 29.86 in 10.0 mi WNW 31.1 mph 43.7 mph N/A   Scattered Clouds
3:53 PM 48.0 °F - 28.0 °F 46% 29.89 in 10.0 mi WNW 29.9 mph 38.0 mph N/A   Scattered Clouds
4:53 PM 43.0 °F 33.8 °F 27.0 °F 53% 29.96 in 10.0 mi WNW 23.0 mph 28.8 mph N/A   Clear
5:53 PM 42.1 °F 33.6 °F 27.0 °F 55% 29.99 in 10.0 mi WNW 18.4 mph - N/A   Clear
6:53 PM 37.9 °F 30.5 °F 26.1 °F 62% 30.03 in 10.0 mi WNW 11.5 mph - N/A   Clear
7:53 PM 34.0 °F 26.0 °F 26.1 °F 73% 30.08 in 10.0 mi WNW 10.4 mph - N/A   Clear
8:53 PM 34.0 °F 26.0 °F 26.1 °F 73% 30.11 in 10.0 mi NW 10.4 mph - N/A   Clear
9:53 PM 30.9 °F 22.8 °F 25.0 °F 79% 30.12 in 10.0 mi West 9.2 mph - N/A   Clear
10:53 PM 32.0 °F 22.5 °F 25.0 °F 75% 30.10 in 10.0 mi WNW 12.7 mph - N/A   Clear
11:53 PM 30.9 °F 21.7 °F 25.0 °F 79% 30.11 in 10.0 mi WNW 11.5 mph - N/A   Clear